Location: Newark
(47.5833°N, 8.1500°E)
Time: 15:32:32
(UTC+00:00)

Tiros 1 - Pass Details

Date: 02 November 2020
Orbit: 630 x 664 km, 48.4° (Epoch: 29 November)

Event Time Altitude Azimuth Distance (km) Brightness Sun altitude
Exits shadow 04:39:07 30° 281° (W) 1,144 7.8 -16.3°
Maximum altitude 04:41:25 86° 10° (N) 636 7.0 -15.9°
Drops below altitude 10° 04:46:03 10° 99° (E) 2,007 11.1 -15.1°
Sets 04:48:22 0° 100° (E) 2,915 12.5 -14.7°
